Hourly Weather Baicoi

Today, 7 May, Friday

Time Temperature Precipitation Wind Pressure Humidity
00:00 +10°C° 0 mm 2 mps 734 mmHg 77%
01:00 +10°C° 0 mm 2 mps 734 mmHg 77%
02:00 +11°C° 0 mm 1 mps 733 mmHg 76%
03:00 +12°C° 0 mm 1 mps 733 mmHg 76%
04:00 +12°C° 0 mm 1 mps 733 mmHg 76%
05:00 +12°C° 0 mm 1 mps 733 mmHg 76%
06:00 +13°C° 0 mm 1 mps 733 mmHg 74%
07:00 +14°C° 0 mm 1 mps 733 mmHg 71%
08:00 +15°C° 0 mm 1 mps 733 mmHg 69%
09:00 +18°C° 0 mm 1 mps 733 mmHg 63%
10:00 +18°C° 0 mm 2 mps 733 mmHg 57%
11:00 +20°C° 0 mm 3 mps 733 mmHg 51%
12:00 +21°C° 0 mm 3 mps 732 mmHg 49%
13:00 +22°C° 0 mm 4 mps 732 mmHg 48%
14:00 +23°C° 0 mm 4 mps 731 mmHg 46%
15:00 +23°C° 0 mm 4 mps 731 mmHg 47%
16:00 +22°C° 0 mm 4 mps 730 mmHg 49%
17:00 +22°C° 0 mm 4 mps 730 mmHg 50%
18:00 +20°C° 0 mm 3 mps 730 mmHg 56%
19:00 +19°C° 0 mm 3 mps 730 mmHg 62%
20:00 +17°C° 0 mm 2 mps 729 mmHg 68%
21:00 +16°C° 0 mm 2 mps 730 mmHg 69%
22:00 +16°C° 0 mm 2 mps 730 mmHg 71%
23:00 +15°C° 0 mm 2 mps 730 mmHg 73%

Tomorrow, 8 May, Saturday

Time Temperature Precipitation Wind Pressure Humidity
00:00 +15°C° 0 mm 2 mps 730 mmHg 75%
01:00 +14°C° 0 mm 2 mps 730 mmHg 77%
02:00 +14°C° 0 mm 2 mps 730 mmHg 79%
03:00 +13°C° 0.1 mm 2 mps 730 mmHg 81%
04:00 +12°C° 0.1 mm 3 mps 731 mmHg 82%
05:00 +11°C° 0.1 mm 3 mps 731 mmHg 84%
06:00 +12°C° 0 mm 3 mps 732 mmHg 78%
07:00 +12°C° 0 mm 3 mps 732 mmHg 72%
08:00 +13°C° 0 mm 3 mps 733 mmHg 65%
09:00 +12°C° 0.1 mm 3 mps 734 mmHg 69%
10:00 +12°C° 0.1 mm 3 mps 735 mmHg 73%
11:00 +11°C° 0.1 mm 3 mps 736 mmHg 76%
12:00 +11°C° 0.2 mm 3 mps 736 mmHg 73%
13:00 +12°C° 0.2 mm 2 mps 736 mmHg 70%
14:00 +12°C° 0.2 mm 2 mps 736 mmHg 67%
15:00 +12°C° 0.1 mm 2 mps 736 mmHg 66%
16:00 +12°C° 0.1 mm 3 mps 737 mmHg 65%
17:00 +12°C° 0.1 mm 3 mps 737 mmHg 65%
18:00 +12°C° 0.1 mm 2 mps 738 mmHg 71%
19:00 +10°C° 0.1 mm 2 mps 738 mmHg 77%
20:00 +10°C° 0.1 mm 1 mps 739 mmHg 83%
21:00 +9°C° 0.1 mm 1 mps 739 mmHg 85%
22:00 +8°C° 0.1 mm 1 mps 740 mmHg 87%
23:00 +7°C° 0.1 mm 1 mps 741 mmHg 90%

Day after tomorrow, 9 May, Sunday

Time Temperature Precipitation Wind Pressure Humidity
00:00 +7°C° 0 mm 1 mps 741 mmHg 88%
01:00 +7°C° 0 mm 1 mps 741 mmHg 87%
02:00 +7°C° 0 mm 1 mps 741 mmHg 85%
03:00 +7°C° 0 mm 1 mps 742 mmHg 85%
04:00 +7°C° 0 mm 1 mps 742 mmHg 84%
05:00 +6°C° 0 mm 1 mps 742 mmHg 84%
06:00 +8°C° 0 mm 1 mps 742 mmHg 78%
07:00 +10°C° 0 mm 1 mps 743 mmHg 72%
08:00 +11°C° 0 mm 1 mps 743 mmHg 66%
09:00 +13°C° 0 mm 1 mps 743 mmHg 61%
10:00 +14°C° 0 mm 2 mps 743 mmHg 55%
11:00 +14°C° 0 mm 3 mps 743 mmHg 50%
12:00 +16°C° 0 mm 3 mps 743 mmHg 48%
13:00 +16°C° 0 mm 3 mps 743 mmHg 47%
14:00 +17°C° 0 mm 3 mps 743 mmHg 45%
15:00 +17°C° 0 mm 3 mps 742 mmHg 46%
16:00 +17°C° 0 mm 3 mps 742 mmHg 47%
17:00 +17°C° 0 mm 3 mps 742 mmHg 48%
18:00 +15°C° 0 mm 2 mps 742 mmHg 55%
19:00 +13°C° 0 mm 1 mps 742 mmHg 62%
20:00 +11°C° 0 mm 1 mps 742 mmHg 69%
21:00 +11°C° 0 mm 1 mps 743 mmHg 71%
22:00 +10°C° 0 mm 1 mps 743 mmHg 73%
23:00 +9°C° 0 mm 1 mps 743 mmHg 75%

10 May, Monday

Time Temperature Precipitation Wind Pressure Humidity
00:00 +9°C° 0 mm 1 mps 743 mmHg 76%
01:00 +8°C° 0 mm 1 mps 743 mmHg 78%
02:00 +8°C° 0 mm 1 mps 743 mmHg 80%
03:00 +8°C° 0 mm 1 mps 743 mmHg 80%
04:00 +7°C° 0 mm 1 mps 743 mmHg 81%
05:00 +6°C° 0 mm 2 mps 742 mmHg 81%
06:00 +8°C° 0 mm 2 mps 743 mmHg 73%
07:00 +10°C° 0 mm 2 mps 743 mmHg 66%
08:00 +13°C° 0 mm 2 mps 743 mmHg 58%
09:00 +14°C° 0 mm 2 mps 743 mmHg 54%
10:00 +14°C° 0 mm 3 mps 743 mmHg 49%
11:00 +16°C° 0 mm 3 mps 743 mmHg 45%
12:00 +17°C° 0 mm 3 mps 742 mmHg 44%
13:00 +18°C° 0 mm 3 mps 742 mmHg 43%
14:00 +18°C° 0 mm 3 mps 742 mmHg 42%
15:00 +18°C° 0 mm 3 mps 741 mmHg 43%
16:00 +18°C° 0 mm 2 mps 741 mmHg 44%
17:00 +18°C° 0 mm 2 mps 740 mmHg 44%
18:00 +16°C° 0 mm 2 mps 740 mmHg 52%
19:00 +14°C° 0 mm 1 mps 740 mmHg 59%
20:00 +12°C° 0 mm 1 mps 740 mmHg 66%
21:00 +11°C° 0 mm 1 mps 740 mmHg 69%
22:00 +11°C° 0 mm 1 mps 741 mmHg 72%
23:00 +10°C° 0 mm 1 mps 741 mmHg 75%

11 May, Tuesday

Time Temperature Precipitation Wind Pressure Humidity
00:00 +9°C° 0 mm 1 mps 741 mmHg 77%
01:00 +9°C° 0 mm 1 mps 741 mmHg 80%
02:00 +7°C° 0 mm 2 mps 740 mmHg 82%
03:00 +7°C° 0 mm 2 mps 740 mmHg 82%
04:00 +7°C° 0 mm 2 mps 740 mmHg 82%
05:00 +7°C° 0 mm 2 mps 740 mmHg 82%
06:00 +9°C° 0 mm 2 mps 740 mmHg 73%
07:00 +12°C° 0 mm 2 mps 740 mmHg 64%
08:00 +14°C° 0 mm 1 mps 740 mmHg 56%
09:00 +16°C° 0 mm 2 mps 739 mmHg 51%
10:00 +17°C° 0 mm 2 mps 739 mmHg 46%
11:00 +18°C° 0 mm 2 mps 739 mmHg 41%
12:00 +19°C° 0 mm 2 mps 739 mmHg 41%
13:00 +20°C° 0 mm 2 mps 738 mmHg 40%
14:00 +20°C° 0 mm 2 mps 738 mmHg 39%
15:00 +20°C° 0 mm 2 mps 737 mmHg 40%
16:00 +20°C° 0 mm 2 mps 737 mmHg 41%
17:00 +20°C° 0 mm 2 mps 737 mmHg 42%
18:00 +19°C° 0 mm 1 mps 736 mmHg 49%
19:00 +16°C° 0 mm 1 mps 736 mmHg 56%
20:00 +14°C° 0 mm 1 mps 736 mmHg 63%
21:00 +13°C° 0 mm 1 mps 736 mmHg 64%
22:00 +13°C° 0 mm 1 mps 736 mmHg 66%
23:00 +12°C° 0 mm 2 mps 736 mmHg 68%

12 May, Wednesday

Time Temperature Precipitation Wind Pressure Humidity
00:00 +12°C° 0 mm 2 mps 735 mmHg 68%
01:00 +12°C° 0 mm 2 mps 735 mmHg 68%
02:00 +12°C° 0 mm 2 mps 734 mmHg 69%
03:00 +12°C° 0 mm 2 mps 734 mmHg 70%
04:00 +10°C° 0 mm 2 mps 734 mmHg 72%
05:00 +10°C° 0 mm 2 mps 734 mmHg 73%
06:00 +11°C° 0 mm 3 mps 734 mmHg 74%
07:00 +13°C° 0 mm 4 mps 734 mmHg 75%
08:00 +14°C° 0 mm 5 mps 734 mmHg 76%
09:00 +14°C° 0 mm 5 mps 733 mmHg 73%
10:00 +15°C° 0 mm 5 mps 733 mmHg 71%
11:00 +15°C° 0 mm 5 mps 733 mmHg 68%
12:00 +15°C° 0 mm 5 mps 733 mmHg 67%
13:00 +16°C° 0 mm 5 mps 732 mmHg 65%
14:00 +16°C° 0 mm 5 mps 732 mmHg 64%
15:00 +16°C° 0 mm 5 mps 732 mmHg 64%
16:00 +15°C° 0 mm 5 mps 731 mmHg 63%
17:00 +15°C° 0 mm 5 mps 731 mmHg 63%
18:00 +15°C° 0 mm 4 mps 730 mmHg 64%
19:00 +14°C° 0 mm 4 mps 730 mmHg 64%
20:00 +13°C° 0 mm 3 mps 730 mmHg 65%
21:00 +12°C° 0 mm 4 mps 730 mmHg 70%
22:00 +12°C° 0 mm 4 mps 730 mmHg 74%
23:00 +10°C° 0 mm 5 mps 729 mmHg 78%
Show more

We Need Your Consent

Meteoprog and our Service Providers may store and access personal data such as cookies, device identifiers or other similar technologies on your device and process such data to personalise content and ads, as well as provide social media features and to analyse the traffic.

  • Store and/or access information on your device

    Cookies, device identifiers or other information can be stored or accessed on your device for the purposes indicated above.

  • Personalised ads and content, ad and content measurement, audience insights, and products development

    Ads and content can be personalised based on a profile. More data can be added to better personalise ads and content. Ad and content performance can be measured. Insights about the audience who saw the ads and content can be derived. Such data can be used to develop or improve user’s experience, systems and software.

By clicking ‘I Agree’ you will allow the use of indicated cookies, device identifiers, web beacons or other similar technologies. Your settings can be changed in the browser on your device.

For certain purposes, legitimate interests may be relied on, rather than consent. You can read more about this in our Privacy and Cookie Policy.